Weather History for KACB - April, 2014

Change the Weather History Date:

Tuesday, April 1, 2014

  Actual Average (KTVC) Record (KTVC)
Temperature  
Mean Temperature 39 °F 37 °F  
Max Temperature 48 °F 47 °F 82 °F (2010)
Min Temperature 30 °F 27 °F 3 °F (1923)
Degree Days  
Heating Degree Days 26 28  
Month to date heating degree days 28  
Since 1 July heating degree days 6430  
Cooling Degree Days 0 0  
Month to date cooling degree days 0  
Year to date cooling degree days 0  
Moisture  
Dew Point 30 °F    
Average Humidity 69    
Maximum Humidity 79    
Minimum Humidity 47    
Precipitation  
Precipitation 0.00 in 0.09 in 0.56 in (1959)
Month to date precipitation 0.09  
Year to date precipitation 6.27  
Sea Level Pressure  
Sea Level Pressure 29.75 in    
Wind  
Wind Speed 13 mph (SSW)    
Max Wind Speed 21 mph    
Max Gust Speed 33 mph    
Visibility 10 miles    
Events Rain , Snow    
T = Trace of Precipitation, MM = Missing Value Source: NWS Daily Summary

Daily Weather History Graph

Daily Weather History Graph

Search for Another Location

Airport or City:

Trip Planner

Search our weather history database for the weather conditions in past years. The results will help you decide how hot, cold, wet, or windy it might be!

Date:

Astronomy

Apr. 01, 2014 Rise Set
Actual Time 7:21 AM EDT 8:08 PM EDT
Civil Twilight 6:51 AM EDT 8:38 PM EDT
Nautical Twilight 6:16 AM EDT 9:13 PM EDT
Astronomical Twilight 5:39 AM EDT 9:50 PM EDT
Moon 8:18 AM EDT (4/1) 10:36 PM EDT (4/1)
Length of Visible Light 13h 46m
Length of Day
12h 47m
Waxing Crescent, 4% of the Moon is Illuminated
Apr 1
Waxing Crescent
Apr 7
First Quarter
Apr 15
Full
Apr 22
Last Quarter
Apr 29
New

Hourly Weather History & Observations

Time (EDT) Temp. Windchill Dew Point Humidity Pressure Visibility Wind Dir Wind Speed Gust Speed Precip Events Conditions
12:14 AM 48.7 °F - 29.3 °F 47% 29.79 in 10.0 mi SSE 19.6 mph 33.4 mph N/A   Mostly Cloudy
12:35 AM 48.4 °F - 29.5 °F 48% 29.80 in 10.0 mi SE 16.1 mph 25.3 mph N/A   Mostly Cloudy
12:54 AM 48.7 °F - 29.8 °F 48% 29.81 in 10.0 mi SSE 15.0 mph 23.0 mph N/A   Overcast
1:14 AM 48.0 °F - 29.8 °F 49% 29.80 in 10.0 mi SSE 16.1 mph 23.0 mph N/A   Overcast
1:35 AM 48.2 °F - 29.8 °F 49% 29.81 in 10.0 mi South 15.0 mph 23.0 mph N/A   Overcast
1:54 AM 48.2 °F - 30.0 °F 49% 29.82 in 10.0 mi South 13.8 mph 24.2 mph N/A   Overcast
2:14 AM 48.0 °F - 30.0 °F 50% 29.83 in 10.0 mi South 11.5 mph 25.3 mph N/A   Overcast
2:35 AM 47.5 °F - 30.7 °F 52% 29.83 in 10.0 mi South 12.7 mph 21.9 mph N/A Rain Rain
2:54 AM 43.5 °F 40.1 °F 33.6 °F 68% 29.82 in 5.0 mi SSE 5.8 mph - N/A   Overcast
3:14 AM 42.3 °F 37.3 °F 34.7 °F 75% 29.80 in 7.0 mi SE 8.1 mph - N/A   Unknown
3:35 AM 43.7 °F 40.3 °F 35.4 °F 73% 29.77 in 10.0 mi SSE 5.8 mph - N/A   Overcast
3:54 AM 43.7 °F 38.1 °F 36.5 °F 76% 29.75 in 10.0 mi SSE 10.4 mph - N/A   Overcast
4:14 AM 44.6 °F 38.4 °F 36.5 °F 73% 29.73 in 10.0 mi SSE 12.7 mph 21.9 mph N/A   Overcast
4:35 AM 45.0 °F 36.9 °F 36.1 °F 71% 29.70 in 10.0 mi SE 20.7 mph 28.8 mph N/A Rain Light Rain
4:54 AM 45.7 °F 38.3 °F 36.7 °F 71% 29.70 in 10.0 mi SE 18.4 mph 33.4 mph N/A   Overcast
5:15 AM 46.0 °F 39.3 °F 37.4 °F 72% 29.68 in 10.0 mi SSE 16.1 mph 25.3 mph N/A   Overcast
5:35 AM 46.0 °F 39.6 °F 37.0 °F 71% 29.67 in 10.0 mi SSE 15.0 mph 24.2 mph N/A   Overcast
5:54 AM 45.7 °F 39.1 °F 36.0 °F 69% 29.66 in 10.0 mi SSE 15.0 mph 20.7 mph N/A   Overcast
6:15 AM 45.1 °F 38.1 °F 35.2 °F 68% 29.65 in 10.0 mi SSE 16.1 mph 25.3 mph N/A   Overcast
6:35 AM 45.5 °F 39.6 °F 34.9 °F 66% 29.65 in 10.0 mi SSE 12.7 mph 23.0 mph N/A   Overcast
6:54 AM 45.5 °F 39.2 °F 35.8 °F 69% 29.64 in 10.0 mi SSE 13.8 mph 18.4 mph N/A   Overcast
7:15 AM 45.9 °F 38.8 °F 36.5 °F 70% 29.63 in 10.0 mi SSE 17.3 mph 23.0 mph N/A   Overcast
7:34 AM 46.2 °F 39.8 °F 37.2 °F 71% 29.64 in 10.0 mi SSE 15.0 mph 24.2 mph N/A   Overcast
7:54 AM 46.4 °F 40.4 °F 37.2 °F 70% 29.63 in 10.0 mi SSE 13.8 mph 24.2 mph N/A   Overcast
8:15 AM 46.0 °F 41.4 °F 36.9 °F 70% 29.63 in 10.0 mi South 9.2 mph 21.9 mph N/A   Overcast
8:34 AM 45.5 °F 40.3 °F 36.1 °F 70% 29.63 in 10.0 mi South 10.4 mph 23.0 mph N/A   Overcast
8:54 AM 45.3 °F 39.7 °F 36.0 °F 70% 29.61 in 10.0 mi SSE 11.5 mph 18.4 mph N/A   Overcast
9:15 AM 45.7 °F 40.6 °F 36.0 °F 69% 29.61 in 10.0 mi South 10.4 mph 18.4 mph N/A   Overcast
9:34 AM 45.5 °F 40.8 °F 36.0 °F 69% 29.60 in 10.0 mi South 9.2 mph 19.6 mph N/A   Overcast
9:54 AM 46.8 °F - 36.5 °F 67% 29.59 in 10.0 mi SSE 10.4 mph 18.4 mph N/A   Mostly Cloudy
10:15 AM 46.6 °F - 36.5 °F 68% 29.60 in 10.0 mi SSE 13.8 mph 20.7 mph N/A   Mostly Cloudy
10:34 AM 46.4 °F 40.7 °F 36.9 °F 69% 29.59 in 10.0 mi South 12.7 mph - N/A   Overcast
10:55 AM 45.5 °F 39.9 °F 36.7 °F 71% 29.59 in 10.0 mi South 11.5 mph 16.1 mph N/A   Overcast
11:15 AM 46.4 °F 41.5 °F 37.6 °F 71% 29.60 in 10.0 mi South 10.4 mph 16.1 mph N/A   Overcast
11:34 AM 44.1 °F 38.1 °F 34.2 °F 68% 29.62 in 10.0 mi SW 11.5 mph 24.2 mph N/A   Overcast
11:55 AM 41.2 °F 36.0 °F 30.4 °F 65% 29.63 in 10.0 mi SW 8.1 mph - N/A   Overcast
12:15 PM 41.0 °F 35.2 °F 29.5 °F 64% 29.64 in 10.0 mi WSW 9.2 mph - N/A   Overcast
12:34 PM 39.4 °F 33.2 °F 29.1 °F 67% 29.65 in 10.0 mi WSW 9.2 mph - N/A   Overcast
12:55 PM 38.5 °F 30.3 °F 28.4 °F 67% 29.65 in 10.0 mi WSW 13.8 mph 23.0 mph N/A   Overcast
1:15 PM 36.7 °F 28.0 °F 27.5 °F 69% 29.66 in 10.0 mi SW 13.8 mph 20.7 mph N/A   Overcast
1:34 PM 35.6 °F 27.1 °F 27.7 °F 73% 29.67 in 10.0 mi SW 12.7 mph 19.6 mph N/A   Overcast
1:55 PM 34.7 °F 26.9 °F 27.9 °F 76% 29.68 in 10.0 mi SW 10.4 mph 18.4 mph N/A   Overcast
2:15 PM 33.6 °F 25.6 °F 27.5 °F 78% 29.69 in 5.0 mi WSW 10.4 mph 23.0 mph N/A   Haze
2:34 PM 33.3 °F 24.1 °F 27.5 °F 79% 29.70 in 10.0 mi SW 12.7 mph 25.3 mph N/A   Overcast
2:55 PM 33.3 °F 27.1 °F 27.0 °F 78% 29.71 in 10.0 mi SW 6.9 mph 23.0 mph N/A Snow Light Snow
3:14 PM 33.1 °F 26.1 °F 26.1 °F 75% 29.72 in 5.0 mi SW 8.1 mph - N/A Snow Light Snow
3:34 PM 32.5 °F 24.2 °F 25.5 °F 75% 29.73 in 5.0 mi SW 10.4 mph 21.9 mph N/A Snow Light Snow
3:55 PM 32.5 °F 22.7 °F 25.2 °F 74% 29.73 in 5.0 mi SW 13.8 mph 19.6 mph N/A   Haze
4:15 PM 32.2 °F 24.4 °F 25.5 °F 76% 29.74 in 10.0 mi SW 9.2 mph 21.9 mph N/A   Overcast
4:35 PM 32.2 °F 25.8 °F 25.0 °F 75% 29.74 in 7.0 mi SW 6.9 mph 20.7 mph N/A   Overcast
4:55 PM 32.2 °F 23.8 °F 24.6 °F 74% 29.74 in 10.0 mi SW 10.4 mph 19.6 mph N/A   Overcast
5:14 PM 32.0 °F 23.6 °F 24.8 °F 75% 29.75 in 10.0 mi SW 10.4 mph 21.9 mph N/A   Overcast
5:35 PM 32.0 °F 25.6 °F 24.6 °F 74% 29.75 in 10.0 mi SW 6.9 mph 17.3 mph N/A   Overcast
5:55 PM 32.5 °F 25.5 °F 24.8 °F 73% 29.77 in 10.0 mi SW 8.1 mph 16.1 mph N/A   Overcast
6:14 PM 32.4 °F 22.5 °F 25.0 °F 74% 29.78 in 10.0 mi SW 13.8 mph 27.6 mph N/A   Overcast
6:35 PM 32.0 °F 25.6 °F 25.2 °F 76% 29.79 in 10.0 mi SSW 6.9 mph 20.7 mph N/A   Overcast
6:55 PM 32.0 °F 23.0 °F 25.3 °F 76% 29.81 in 10.0 mi WSW 11.5 mph 20.7 mph N/A   Overcast
7:14 PM 32.0 °F 24.8 °F 26.1 °F 79% 29.82 in 10.0 mi SW 8.1 mph 21.9 mph N/A   Overcast
7:35 PM 32.0 °F 24.8 °F 26.1 °F 79% 29.83 in 10.0 mi WSW 8.1 mph 16.1 mph N/A   Overcast
7:55 PM 32.0 °F 22.1 °F 25.2 °F 76% 29.85 in 10.0 mi SW 13.8 mph 27.6 mph N/A   Overcast
8:14 PM 31.8 °F 24.6 °F 23.4 °F 71% 29.86 in 10.0 mi WSW 8.1 mph 21.9 mph N/A   Overcast
8:35 PM 31.1 °F 24.5 °F 23.7 °F 74% 29.87 in 10.0 mi WSW 6.9 mph - N/A   Overcast
8:55 PM 30.9 °F 24.3 °F 23.5 °F 74% 29.89 in 10.0 mi WSW 6.9 mph 16.1 mph N/A   Overcast
9:14 PM 30.7 °F 24.1 °F 23.0 °F 73% 29.90 in 10.0 mi WSW 6.9 mph - N/A   Overcast
9:35 PM 30.7 °F 24.9 °F 22.6 °F 72% 29.92 in 10.0 mi WSW 5.8 mph - N/A   Overcast
9:55 PM 30.9 °F 24.3 °F 21.7 °F 69% 29.93 in 10.0 mi West 6.9 mph 18.4 mph N/A   Overcast
10:15 PM 30.9 °F 22.8 °F 21.2 °F 67% 29.94 in 10.0 mi WSW 9.2 mph - N/A   Overcast
10:35 PM 30.9 °F 23.5 °F 21.2 °F 67% 29.95 in 10.0 mi WSW 8.1 mph - N/A   Overcast
10:55 PM 31.1 °F 22.4 °F 20.3 °F 64% 29.95 in 10.0 mi WSW 10.4 mph 19.6 mph N/A   Overcast
11:15 PM 31.1 °F 23.7 °F 20.3 °F 64% 29.97 in 10.0 mi West 8.1 mph 16.1 mph N/A   Overcast
11:35 PM 30.9 °F 24.3 °F 19.8 °F 63% 29.97 in 10.0 mi West 6.9 mph 20.7 mph N/A   Overcast
11:54 PM 30.4 °F 22.2 °F 18.9 °F 62% 29.98 in 10.0 mi West 9.2 mph 18.4 mph N/A   Overcast